Location: Grantsboro
(35.1404°N, 76.8424°W)
Time: 09:37:31
(UTC+00:00)

METEOR-M - Pass Details

Date: 18 January 2020
Orbit: 815 x 820 km, 98.4° (Epoch: 27 February)

Event Time Altitude Azimuth Distance (km) Brightness Sun altitude
Rises 10:11:42 0° 15° (NNE) 3,355 7.4 -24.8°
Reaches altitude 10° 10:14:04 10° 17° (NNE) 2,419 6.7 -24.3°
Maximum altitude 10:19:25 72° 102° (ESE) 861 4.3 -23.3°
Drops below altitude 10° 10:24:43 10° 187° (S) 2,401 6.6 -22.2°
Sets 10:27:03 0° 189° (S) 3,329 7.3 -21.7°
